Location: Eaton
(41.3139°N, 82.0207°W)
Time: 06:09:20
(UTC+00:00)

Cosmos 2285 Rocket - Pass Details

Date: 27 October 2021
Orbit: 970 x 1000 km, 74.0° (Epoch: 06 December)

Event Time Altitude Azimuth Distance (km) Brightness Sun altitude
Rises 10:44:00 0° 354° (N) 3,724 6.9 -13.7°
Reaches altitude 10° 10:48:16 10° 21° (NNE) 2,774 6.6 -12.9°
Maximum altitude 10:51:12 13° 48° (NE) 2,537 6.8 -12.4°
Drops below altitude 10° 10:54:08 10° 76° (ENE) 2,771 7.6 -11.8°
Sets 10:58:21 0° 102° (ESE) 3,716 9.2 -11.0°
